Time,TemperatureF,DewpointF,PressureIn,WindDirection,WindDirectionDegrees,WindSpeedMPH,WindSpeedGustMPH,Humidity,HourlyPrecipIn,Conditions,Clouds,dailyrainin,SoftwareType,DateUTC
2013-01-28 00:02:00,-999.0,-99.9,30.18,NE,40,16.0,24.0,-999,-99.99,,,-99.99,,2013-01-28 09:02:00,
2013-01-28 00:12:00,-999.0,-99.9,30.18,NE,38,19.0,29.0,-999,-99.99,,,-99.99,,2013-01-28 09:12:00,
2013-01-28 00:22:00,4.0,-99.9,30.19,NE,41,21.0,29.0,-999,-99.99,,,-99.99,,2013-01-28 09:22:00,
2013-01-28 00:32:00,-999.0,-99.9,30.19,NE,44,20.0,30.0,-999,-99.99,,,-99.99,,2013-01-28 09:32:00,
2013-01-28 00:42:00,-999.0,-99.9,30.19,NE,50,15.0,25.0,-999,-99.99,,,-99.99,,2013-01-28 09:42:00,
2013-01-28 00:52:00,5.0,-99.9,30.19,NE,43,19.0,26.0,-999,-99.99,,,-99.99,,2013-01-28 09:52:00,
2013-01-28 01:02:00,-999.0,-99.9,30.19,NE,55,18.0,26.0,-999,-99.99,,,-99.99,,2013-01-28 10:02:00,
2013-01-28 01:11:00,4.0,-99.9,30.19,NE,48,17.0,31.0,-999,-99.99,,,-99.99,,2013-01-28 10:11:00,
2013-01-28 01:21:00,-999.0,-99.9,30.20,NE,43,17.0,28.0,-999,-99.99,,,-99.99,,2013-01-28 10:21:00,
2013-01-28 01:32:00,-999.0,-99.9,30.20,NE,42,16.0,23.0,-999,-99.99,,,-99.99,,2013-01-28 10:32:00,
2013-01-28 01:42:00,-999.0,-99.9,30.20,NE,39,18.0,24.0,-999,-99.99,,,-99.99,,2013-01-28 10:42:00,
2013-01-28 01:52:00,5.0,-99.9,30.21,NE,45,16.0,22.0,-999,-99.99,,,-99.99,,2013-01-28 10:52:00,
2013-01-28 02:02:00,-999.0,-99.9,30.20,NE,42,17.0,26.0,-999,-99.99,,,-99.99,,2013-01-28 11:02:00,
2013-01-28 02:11:00,5.0,-99.9,30.20,NE,39,20.0,30.0,-999,-99.99,,,-99.99,,2013-01-28 11:11:00,
2013-01-28 02:22:00,-999.0,-99.9,30.20,NE,48,18.0,26.0,-999,-99.99,,,-99.99,,2013-01-28 11:22:00,
2013-01-28 02:33:00,-999.0,-99.9,30.20,NE,44,15.0,25.0,-999,-99.99,,,-99.99,,2013-01-28 11:33:00,
2013-01-28 02:42:00,5.0,-99.9,30.20,NE,34,21.0,29.0,-999,-99.99,,,-99.99,,2013-01-28 11:42:00,
2013-01-28 02:52:00,-999.0,-99.9,30.20,NE,40,19.0,30.0,-999,-99.99,,,-99.99,,2013-01-28 11:52:00,
2013-01-28 03:03:00,-999.0,-99.9,30.19,NE,39,21.0,30.0,-999,-99.99,,,-99.99,,2013-01-28 12:03:00,
2013-01-28 03:12:00,-999.0,-99.9,30.18,NE,50,22.0,31.0,-999,-99.99,,,-99.99,,2013-01-28 12:12:00,
2013-01-28 03:23:00,6.0,-99.9,30.19,NE,50,19.0,31.0,-999,-99.99,,,-99.99,,2013-01-28 12:23:00,
2013-01-28 03:33:00,-999.0,-99.9,30.18,NE,49,26.0,31.0,-999,-99.99,,,-99.99,,2013-01-28 12:33:00,
2013-01-28 03:42:00,-999.0,-99.9,30.19,NE,39,20.0,31.0,-999,-99.99,,,-99.99,,2013-01-28 12:42:00,
2013-01-28 03:53:00,6.0,-99.9,30.19,NE,40,27.0,37.0,-999,-99.99,,,-99.99,,2013-01-28 12:53:00,
2013-01-28 04:03:00,-999.0,-99.9,30.19,NE,39,22.0,31.0,-999,-99.99,,,-99.99,,2013-01-28 13:03:00,
2013-01-28 04:12:00,6.0,-99.9,30.19,NE,52,18.0,31.0,-999,-99.99,,,-99.99,,2013-01-28 13:12:00,
2013-01-28 04:23:00,-999.0,-99.9,30.19,NE,38,19.0,28.0,-999,-99.99,,,-99.99,,2013-01-28 13:23:00,
2013-01-28 04:33:00,-999.0,-99.9,30.20,NE,44,20.0,29.0,-999,-99.99,,,-99.99,,2013-01-28 13:33:00,
2013-01-28 04:43:00,-999.0,-99.9,30.19,NE,42,21.0,27.0,-999,-99.99,,,-99.99,,2013-01-28 13:43:00,
2013-01-28 04:53:00,7.0,-99.9,30.19,NE,52,20.0,31.0,-999,-99.99,,,-99.99,,2013-01-28 13:53:00,
2013-01-28 05:03:00,-999.0,-99.9,30.19,NE,42,25.0,35.0,-999,-99.99,,,-99.99,,2013-01-28 14:03:00,
2013-01-28 05:12:00,-999.0,-99.9,30.19,NE,49,23.0,31.0,-999,-99.99,,,-99.99,,2013-01-28 14:12:00,
2013-01-28 05:23:00,7.0,-99.9,30.19,NE,51,21.0,29.0,-999,-99.99,,,-99.99,,2013-01-28 14:23:00,
2013-01-28 05:33:00,-999.0,-99.9,30.20,NE,44,15.0,20.0,-999,-99.99,,,-99.99,,2013-01-28 14:33:00,
2013-01-28 05:43:00,8.0,-99.9,30.20,NE,43,19.0,26.0,-999,-99.99,,,-99.99,,2013-01-28 14:43:00,
2013-01-28 05:53:00,-999.0,-99.9,30.20,NE,36,15.0,25.0,-999,-99.99,,,-99.99,,2013-01-28 14:53:00,
2013-01-28 06:03:00,-999.0,-99.9,30.19,NE,39,14.0,27.0,-999,-99.99,,,-99.99,,2013-01-28 15:03:00,
2013-01-28 06:13:00,-999.0,-99.9,30.19,NNE,33,19.0,28.0,-999,-99.99,,,-99.99,,2013-01-28 15:13:00,
2013-01-28 06:24:00,-999.0,-99.9,30.19,NNE,33,17.0,27.0,-999,-99.99,,,-99.99,,2013-01-28 15:24:00,
2013-01-28 06:33:00,-999.0,-99.9,30.18,NE,35,16.0,25.0,-999,-99.99,,,-99.99,,2013-01-28 15:33:00,
2013-01-28 06:43:00,-999.0,-99.9,30.18,NE,43,16.0,20.0,-999,-99.99,,,-99.99,,2013-01-28 15:43:00,
2013-01-28 06:54:00,8.0,-99.9,30.17,NE,46,18.0,24.0,-999,-99.99,,,-99.99,,2013-01-28 15:54:00,
2013-01-28 07:04:00,-999.0,-99.9,30.16,NE,38,17.0,25.0,-999,-99.99,,,-99.99,,2013-01-28 16:04:00,
2013-01-28 07:13:00,8.0,-99.9,30.16,NE,37,12.0,20.0,-999,-99.99,,,-99.99,,2013-01-28 16:13:00,
2013-01-28 07:22:00,-999.0,-99.9,30.16,NE,36,19.0,26.0,-999,-99.99,,,-99.99,,2013-01-28 16:22:00,
2013-01-28 07:33:00,-999.0,-99.9,30.16,NE,34,13.0,24.0,-999,-99.99,,,-99.99,,2013-01-28 16:33:00,
2013-01-28 07:43:00,8.0,-99.9,30.15,NE,38,18.0,25.0,-999,-99.99,,,-99.99,,2013-01-28 16:43:00,
2013-01-28 07:53:00,-999.0,-99.9,30.14,NE,37,18.0,25.0,-999,-99.99,,,-99.99,,2013-01-28 16:53:00,
2013-01-28 08:02:00,-999.0,-99.9,30.14,NNE,33,18.0,25.0,-999,-99.99,,,-99.99,,2013-01-28 17:02:00,
2013-01-28 08:12:00,-999.0,-99.9,30.15,NE,43,15.0,27.0,-999,-99.99,,,-99.99,,2013-01-28 17:12:00,
2013-01-28 08:23:00,8.0,-99.9,30.14,NE,38,18.0,25.0,-999,-99.99,,,-99.99,,2013-01-28 17:23:00,
2013-01-28 08:33:00,-999.0,-99.9,30.15,NE,37,14.0,23.0,-999,-99.99,,,-99.99,,2013-01-28 17:33:00,
2013-01-28 08:42:00,-999.0,-99.9,30.15,NE,35,17.0,29.0,-999,-99.99,,,-99.99,,2013-01-28 17:42:00,
2013-01-28 08:53:00,8.0,-99.9,30.14,NE,36,16.0,24.0,-999,-99.99,,,-99.99,,2013-01-28 17:53:00,
2013-01-28 09:03:00,-999.0,-99.9,30.14,NE,38,20.0,28.0,-999,-99.99,,,-99.99,,2013-01-28 18:03:00,
2013-01-28 09:13:00,9.0,-99.9,30.14,NE,41,16.0,25.0,-999,-99.99,,,-99.99,,2013-01-28 18:13:00,
2013-01-28 09:23:00,-999.0,-99.9,30.14,NNE,33,18.0,24.0,-999,-99.99,,,-99.99,,2013-01-28 18:23:00,
2013-01-28 09:33:00,-999.0,-99.9,30.14,NE,38,18.0,25.0,-999,-99.99,,,-99.99,,2013-01-28 18:33:00,
2013-01-28 09:43:00,-999.0,-99.9,30.14,NE,41,15.0,25.0,-999,-99.99,,,-99.99,,2013-01-28 18:43:00,
2013-01-28 09:53:00,9.0,-99.9,30.14,NE,40,18.0,26.0,-999,-99.99,,,-99.99,,2013-01-28 18:53:00,
2013-01-28 10:03:00,-999.0,-99.9,30.15,NE,44,18.0,26.0,-999,-99.99,,,-99.99,,2013-01-28 19:03:00,
2013-01-28 10:13:00,9.0,-99.9,30.14,NE,46,17.0,25.0,-999,-99.99,,,-99.99,,2013-01-28 19:13:00,
2013-01-28 10:23:00,-999.0,-99.9,30.14,NE,47,16.0,27.0,-999,-99.99,,,-99.99,,2013-01-28 19:23:00,
2013-01-28 10:33:00,-999.0,-99.9,30.13,NE,44,15.0,23.0,-999,-99.99,,,-99.99,,2013-01-28 19:33:00,
2013-01-28 10:43:00,10.0,-99.9,30.14,NE,44,14.0,24.0,-999,-99.99,,,-99.99,,2013-01-28 19:43:00,
2013-01-28 10:53:00,-999.0,-99.9,30.13,NE,49,15.0,25.0,-999,-99.99,,,-99.99,,2013-01-28 19:53:00,
2013-01-28 11:03:00,-999.0,-99.9,30.12,NE,45,15.0,26.0,-999,-99.99,,,-99.99,,2013-01-28 20:03:00,
2013-01-28 11:12:00,-999.0,-99.9,30.12,NE,50,21.0,27.0,-999,-99.99,,,-99.99,,2013-01-28 20:12:00,
2013-01-28 11:22:00,9.0,-99.9,30.12,NE,45,19.0,29.0,-999,-99.99,,,-99.99,,2013-01-28 20:22:00,
2013-01-28 11:33:00,-999.0,-99.9,30.12,NE,51,20.0,29.0,-999,-99.99,,,-99.99,,2013-01-28 20:33:00,
2013-01-28 11:43:00,-999.0,-99.9,30.12,NE,42,18.0,25.0,-999,-99.99,,,-99.99,,2013-01-28 20:43:00,
2013-01-28 11:53:00,9.0,-99.9,30.11,NE,42,20.0,29.0,-999,-99.99,,,-99.99,,2013-01-28 20:53:00,
2013-01-28 12:12:00,9.0,-99.9,30.11,NE,49,20.0,26.0,-999,-99.99,,,-99.99,,2013-01-28 21:12:00,
2013-01-28 12:23:00,-999.0,-99.9,30.10,NE,41,17.0,30.0,-999,-99.99,,,-99.99,,2013-01-28 21:23:00,
2013-01-28 12:34:00,-999.0,-99.9,30.11,NE,38,15.0,22.0,-999,-99.99,,,-99.99,,2013-01-28 21:34:00,
2013-01-28 12:43:00,-999.0,-99.9,30.11,NE,47,19.0,26.0,-999,-99.99,,,-99.99,,2013-01-28 21:43:00,
2013-01-28 12:53:00,10.0,-99.9,30.11,ENE,59,13.0,21.0,-999,-99.99,,,-99.99,,2013-01-28 21:53:00,
2013-01-28 13:02:00,-999.0,-99.9,30.11,NE,44,15.0,24.0,-999,-99.99,,,-99.99,,2013-01-28 22:02:00,
2013-01-28 13:12:00,-999.0,-99.9,30.11,NE,44,17.0,30.0,-999,-99.99,,,-99.99,,2013-01-28 22:12:00,
2013-01-28 13:23:00,10.0,-99.9,30.11,NNE,31,18.0,25.0,-999,-99.99,,,-99.99,,2013-01-28 22:23:00,
2013-01-28 13:33:00,-999.0,-99.9,30.10,NE,45,17.0,26.0,-999,-99.99,,,-99.99,,2013-01-28 22:33:00,
2013-01-28 13:43:00,10.0,-99.9,30.10,NE,44,12.0,25.0,-999,-99.99,,,-99.99,,2013-01-28 22:43:00,
2013-01-28 13:53:00,-999.0,-99.9,30.09,NE,47,14.0,22.0,-999,-99.99,,,-99.99,,2013-01-28 22:53:00,
2013-01-28 14:03:00,-999.0,-99.9,30.08,NE,49,17.0,27.0,-999,-99.99,,,-99.99,,2013-01-28 23:03:00,
2013-01-28 14:12:00,-999.0,-99.9,30.07,NE,49,19.0,30.0,-999,-99.99,,,-99.99,,2013-01-28 23:12:00,
2013-01-28 14:22:00,-999.0,-99.9,30.07,NE,40,19.0,29.0,-999,-99.99,,,-99.99,,2013-01-28 23:22:00,
2013-01-28 14:33:00,-999.0,-99.9,30.06,NE,42,19.0,24.0,-999,-99.99,,,-99.99,,2013-01-28 23:33:00,
2013-01-28 14:42:00,-999.0,-99.9,30.06,ENE,61,17.0,24.0,-999,-99.99,,,-99.99,,2013-01-28 23:42:00,
2013-01-28 14:53:00,10.0,-99.9,30.06,NE,45,17.0,24.0,-999,-99.99,,,-99.99,,2013-01-28 23:53:00,
2013-01-28 15:03:00,-999.0,-99.9,30.05,NE,55,17.0,27.0,-999,-99.99,,,-99.99,,2013-01-29 00:03:00,
2013-01-28 15:12:00,11.0,-99.9,30.05,NE,40,16.0,22.0,-999,-99.99,,,-99.99,,2013-01-29 00:12:00,
2013-01-28 15:22:00,-999.0,-99.9,30.04,NE,43,21.0,29.0,-999,-99.99,,,-99.99,,2013-01-29 00:22:00,
2013-01-28 15:33:00,-999.0,-99.9,30.03,NE,45,17.0,22.0,-999,-99.99,,,-99.99,,2013-01-29 00:33:00,
2013-01-28 15:42:00,-999.0,-99.9,30.03,NE,40,15.0,24.0,-999,-99.99,,,-99.99,,2013-01-29 00:42:00,
2013-01-28 15:52:00,-999.0,-99.9,30.03,NE,43,13.0,18.0,-999,-99.99,,,-99.99,,2013-01-29 00:52:00,
2013-01-28 16:02:00,-999.0,-99.9,30.02,NE,46,15.0,21.0,-999,-99.99,,,-99.99,,2013-01-29 01:02:00,
2013-01-28 16:12:00,-999.0,-99.9,30.03,NE,52,17.0,22.0,-999,-99.99,,,-99.99,,2013-01-29 01:12:00,
2013-01-28 16:23:00,11.0,-99.9,30.02,NE,54,14.0,22.0,-999,-99.99,,,-99.99,,2013-01-29 01:23:00,
2013-01-28 16:32:00,-999.0,-99.9,30.02,NE,46,15.0,23.0,-999,-99.99,,,-99.99,,2013-01-29 01:32:00,
2013-01-28 16:42:00,11.0,-99.9,30.02,NE,41,15.0,24.0,-999,-99.99,,,-99.99,,2013-01-29 01:42:00,
2013-01-28 16:53:00,-999.0,-99.9,30.01,NE,50,16.0,20.0,-999,-99.99,,,-99.99,,2013-01-29 01:53:00,
2013-01-28 17:02:00,-999.0,-99.9,30.00,NE,47,15.0,23.0,-999,-99.99,,,-99.99,,2013-01-29 02:02:00,
2013-01-28 17:12:00,11.0,-99.9,30.01,NE,47,12.0,22.0,-999,-99.99,,,-99.99,,2013-01-29 02:12:00,
2013-01-28 17:22:00,-999.0,-99.9,30.01,NE,38,15.0,22.0,-999,-99.99,,,-99.99,,2013-01-29 02:22:00,
2013-01-28 17:33:00,-999.0,-99.9,30.01,NE,50,12.0,19.0,-999,-99.99,,,-99.99,,2013-01-29 02:33:00,
2013-01-28 17:42:00,-999.0,-99.9,30.01,NE,38,15.0,19.0,-999,-99.99,,,-99.99,,2013-01-29 02:42:00,
2013-01-28 17:53:00,11.0,-99.9,30.02,NE,54,16.0,21.0,-999,-99.99,,,-99.99,,2013-01-29 02:53:00,
2013-01-28 18:03:00,-999.0,-99.9,30.02,NE,49,9.0,18.0,-999,-99.99,,,-99.99,,2013-01-29 03:03:00,
2013-01-28 18:12:00,-999.0,-99.9,30.02,NE,56,13.0,19.0,-999,-99.99,,,-99.99,,2013-01-29 03:12:00,
2013-01-28 18:22:00,11.0,-99.9,30.02,ENE,58,13.0,19.0,-999,-99.99,,,-99.99,,2013-01-29 03:22:00,
2013-01-28 18:32:00,-999.0,-99.9,30.02,ENE,57,11.0,17.0,-999,-99.99,,,-99.99,,2013-01-29 03:32:00,
2013-01-28 18:42:00,10.0,-99.9,30.01,ENE,62,11.0,18.0,-999,-99.99,,,-99.99,,2013-01-29 03:42:00,
2013-01-28 18:53:00,-999.0,-99.9,30.01,ENE,65,10.0,14.0,-999,-99.99,,,-99.99,,2013-01-29 03:53:00,
2013-01-28 19:03:00,-999.0,-99.9,30.00,NE,55,12.0,18.0,-999,-99.99,,,-99.99,,2013-01-29 04:03:00,
2013-01-28 19:12:00,-999.0,-99.9,29.99,ENE,58,12.0,21.0,-999,-99.99,,,-99.99,,2013-01-29 04:12:00,
2013-01-28 19:22:00,9.0,-99.9,29.99,NE,51,15.0,22.0,-999,-99.99,,,-99.99,,2013-01-29 04:22:00,
2013-01-28 19:32:00,-999.0,-99.9,29.98,NE,47,16.0,22.0,-999,-99.99,,,-99.99,,2013-01-29 04:32:00,
2013-01-28 19:42:00,-999.0,-99.9,29.97,NE,46,17.0,22.0,-999,-99.99,,,-99.99,,2013-01-29 04:42:00,
2013-01-28 19:52:00,10.0,-99.9,29.97,NE,40,19.0,24.0,-999,-99.99,,,-99.99,,2013-01-29 04:52:00,
2013-01-28 20:04:00,-999.0,-99.9,29.96,NE,39,19.0,23.0,-999,-99.99,,,-99.99,,2013-01-29 05:04:00,
2013-01-28 20:12:00,10.0,-99.9,29.95,NE,42,15.0,22.0,-999,-99.99,,,-99.99,,2013-01-29 05:12:00,
2013-01-28 20:22:00,-999.0,-99.9,29.95,NNE,31,15.0,25.0,-999,-99.99,,,-99.99,,2013-01-29 05:22:00,
2013-01-28 20:32:00,-999.0,-99.9,29.94,NNE,25,15.0,25.0,-999,-99.99,,,-99.99,,2013-01-29 05:32:00,
2013-01-28 20:43:00,-999.0,-99.9,29.93,NE,36,18.0,26.0,-999,-99.99,,,-99.99,,2013-01-29 05:43:00,
2013-01-28 20:52:00,10.0,-99.9,29.93,NNE,32,16.0,27.0,-999,-99.99,,,-99.99,,2013-01-29 05:52:00,
2013-01-28 21:02:00,-999.0,-99.9,29.92,NNE,30,17.0,25.0,-999,-99.99,,,-99.99,,2013-01-29 06:02:00,
2013-01-28 21:11:00,-999.0,-99.9,29.91,NE,38,17.0,27.0,-999,-99.99,,,-99.99,,2013-01-29 06:11:00,
2013-01-28 21:22:00,10.0,-99.9,29.91,NNE,28,15.0,26.0,-999,-99.99,,,-99.99,,2013-01-29 06:22:00,
2013-01-28 21:32:00,-999.0,-99.9,29.91,NE,48,19.0,30.0,-999,-99.99,,,-99.99,,2013-01-29 06:32:00,
2013-01-28 21:42:00,10.0,-99.9,29.90,NE,42,22.0,28.0,-999,-99.99,,,-99.99,,2013-01-29 06:42:00,
2013-01-28 21:52:00,-999.0,-99.9,29.89,NE,44,21.0,28.0,-999,-99.99,,,-99.99,,2013-01-29 06:52:00,
2013-01-28 22:02:00,-999.0,-99.9,29.88,NE,45,25.0,32.0,-999,-99.99,,,-99.99,,2013-01-29 07:02:00,
2013-01-28 22:11:00,-999.0,-99.9,29.88,NE,41,22.0,32.0,-999,-99.99,,,-99.99,,2013-01-29 07:11:00,
2013-01-28 22:21:00,10.0,-99.9,29.88,NE,44,21.0,26.0,-999,-99.99,,,-99.99,,2013-01-29 07:21:00,
2013-01-28 22:32:00,-999.0,-99.9,29.87,NE,38,19.0,29.0,-999,-99.99,,,-99.99,,2013-01-29 07:32:00,
2013-01-28 22:42:00,-999.0,-99.9,29.87,NE,45,22.0,28.0,-999,-99.99,,,-99.99,,2013-01-29 07:42:00,
2013-01-28 22:52:00,10.0,-99.9,29.87,NE,41,22.0,30.0,-999,-99.99,,,-99.99,,2013-01-29 07:52:00,
2013-01-28 23:02:00,-999.0,-99.9,29.86,NE,47,19.0,31.0,-999,-99.99,,,-99.99,,2013-01-29 08:02:00,
2013-01-28 23:11:00,10.0,-99.9,29.85,NE,49,24.0,35.0,-999,-99.99,,,-99.99,,2013-01-29 08:11:00,
2013-01-28 23:21:00,-999.0,-99.9,29.85,NE,46,21.0,35.0,-999,-99.99,,,-99.99,,2013-01-29 08:21:00,
2013-01-28 23:32:00,-999.0,-99.9,29.85,NE,36,22.0,31.0,-999,-99.99,,,-99.99,,2013-01-29 08:32:00,
2013-01-28 23:42:00,-999.0,-99.9,29.84,NE,43,24.0,32.0,-999,-99.99,,,-99.99,,2013-01-29 08:42:00,
2013-01-28 23:52:00,-999.0,-99.9,29.84,NE,45,23.0,32.0,-999,-99.99,,,-99.99,,2013-01-29 08:52:00,